RH
13 12 11 11 10 9 9 8 7 6 5 5 5 5 6 6 6 6 6 6 6 6 6 5 5 5 5 5 5 4 5 6 7 7 8 8 8 7 7 7 7 9 12 18 22 22 22 21 22 25 35 43 50 58 65 70 72 79 80 77 76 75 79 80 82 84 84 86 86 85 84 86 90 86 82 83 82 81 81 77 72 68 65 64 65 62 59 56
14 13 13 12 12 11 10 9 8 8 7 6 5 5 6 6 6 6 6 6 6 5 5 5 5 5 5 5 4 5 4 5 6 7 8 8 9 8 8 9 7 7 9 14 19 22 21 20 20 24 35 43 50 55 62 68 72 81 81 77 76 75 77 78 81 84 84 87 85 84 85 86 90 88 84 84 84 82 82 79 72 70 68 67 64 59 59 58
15 14 13 13 13 12 11 11 10 9 8 7 7 6 6 6 6 6 6 7 6 5 5 5 5 5 4 5 4 4 4 5 8 9 9 9 8 8 9 9 7 6 7 11 15 19 18 19 19 23 34 41 47 52 57 66 74 80 80 78 76 74 75 78 82 83 83 86 86 87 87 87 89 89 87 85 85 83 81 78 72 72 71 69 65 58 59 59
16 15 14 14 13 13 12 11 11 10 9 8 8 7 7 7 7 7 7 6 6 5 5 5 5 4 5 4 4 5 4 8 10 10 10 9 8 9 10 11 9 7 7 9 12 16 16 17 20 25 34 37 41 47 52 64 75 79 79 77 73 69 72 78 82 83 84 84 84 87 87 88 87 87 86 83 85 85 79 76 73 73 72 70 67 60 59 59
15 15 14 14 13 13 12 12 11 11 10 9 9 8 7 8 9 8 7 7 6 5 5 5 5 5 5 4 4 4 4 11 11 8 9 8 8 8 10 12 10 7 7 8 10 13 14 16 22 29 34 35 37 41 47 59 71 76 77 74 70 67 68 74 80 83 85 85 82 83 84 86 85 84 86 81 81 84 79 76 74 72 72 71 69 62 60 60
13 13 13 13 12 12 12 11 11 11 11 10 9 8 8 8 9 10 9 8 7 6 6 5 5 5 5 4 4 4 6 12 12 8 9 7 6 8 11 14 12 9 7 7 8 11 13 16 25 31 32 34 36 38 45 55 63 70 71 70 68 66 65 69 76 81 84 85 83 82 82 84 86 86 87 82 81 82 79 78 75 72 72 73 71 64 61 60
10 11 10 11 11 11 10 11 11 11 11 10 9 8 8 8 10 10 10 10 8 7 6 6 6 5 5 5 4 4 4 9 12 11 10 7 6 7 11 15 14 12 9 8 8 9 10 15 26 30 30 34 36 37 43 51 58 64 66 66 65 63 63 65 72 79 82 85 84 82 82 83 86 87 86 84 84 83 80 78 75 72 71 72 73 67 62 61
8 8 8 9 9 9 9 10 10 10 10 9 9 8 8 9 10 11 10 11 10 9 7 7 7 6 6 5 5 5 4 7 12 13 12 9 7 7 11 15 17 15 11 9 9 8 9 12 23 28 30 34 34 36 42 51 57 59 61 62 61 60 60 62 69 76 80 84 83 82 82 81 85 88 86 86 86 83 80 78 76 74 72 71 73 70 64 62
7 7 7 7 7 8 8 9 9 9 10 9 8 7 8 8 10 11 10 11 11 10 9 9 10 8 7 6 6 7 7 9 11 13 14 13 10 9 10 14 18 18 13 11 10 8 8 10 18 24 29 31 31 37 44 52 58 57 59 59 57 58 57 58 65 72 77 82 81 81 82 82 83 85 86 87 87 84 80 79 77 75 73 71 71 70 66 63
6 6 6 6 7 7 7 8 8 8 8 8 8 7 8 9 11 11 10 11 11 12 12 12 12 10 9 7 8 10 9 9 12 13 16 16 14 11 10 13 17 19 14 11 9 8 8 8 13 19 25 27 28 36 44 51 57 55 57 57 54 55 54 55 62 68 74 81 81 81 83 82 80 81 86 88 86 83 79 78 76 74 75 71 69 69 66 64
6 7 7 7 7 8 8 8 7 7 7 7 7 8 9 10 11 11 10 11 10 12 14 14 13 11 10 9 9 12 11 10 13 15 16 16 17 14 11 11 15 18 16 12 9 9 9 9 13 16 21 24 25 35 44 49 51 51 54 53 51 55 57 57 62 67 72 80 81 80 84 83 79 80 85 88 85 81 78 77 75 74 75 72 69 69 65 64
7 7 8 8 8 9 8 8 7 6 7 8 9 10 11 12 11 11 10 10 10 11 14 16 16 12 11 10 8 11 12 11 13 15 16 16 17 16 12 12 15 18 17 14 10 8 10 12 13 16 20 24 29 37 45 46 45 47 51 50 54 60 62 61 64 69 72 78 80 79 83 83 79 78 81 85 84 79 76 76 75 75 75 72 70 68 65 62
6 7 7 8 9 9 9 9 8 7 8 10 12 13 13 13 12 11 10 9 9 10 13 16 19 17 15 12 8 10 13 13 13 15 15 15 17 17 14 13 15 18 19 17 12 9 11 13 13 14 19 25 33 39 41 42 42 46 47 51 59 63 63 63 67 72 74 78 80 77 80 80 78 78 78 83 82 78 76 75 75 74 74 72 69 68 66 63
7 7 7 7 8 8 9 9 9 9 10 12 13 14 14 13 12 11 10 9 8 9 11 14 20 21 18 13 9 10 13 14 15 15 14 15 16 17 16 15 16 18 20 19 15 11 11 14 14 14 20 27 35 38 38 40 41 42 43 49 58 61 62 64 68 73 75 79 78 75 77 77 76 77 78 80 80 77 75 74 74 73 72 70 68 67 66 65
9 8 8 8 8 8 9 9 9 10 12 13 13 13 13 13 12 11 10 9 9 9 10 12 17 22 21 15 11 12 13 14 16 15 14 14 15 16 16 17 17 18 21 20 16 13 13 15 16 17 24 29 33 35 38 41 41 41 42 45 53 57 61 63 67 72 76 79 76 74 75 74 72 73 76 78 78 77 75 75 75 73 70 69 69 66 65 66
9 10 9 9 8 9 8 8 9 11 13 13 13 13 12 12 11 11 11 10 10 10 10 12 15 21 24 19 15 15 14 13 13 14 13 12 13 15 15 17 18 19 21 20 16 14 15 17 17 21 27 30 33 35 38 42 42 42 41 43 46 49 56 63 65 68 72 78 76 72 73 71 69 71 74 76 77 77 76 76 77 76 72 70 69 68 66 66
9 10 9 10 9 9 9 8 8 10 13 13 13 12 11 11 11 11 12 11 12 13 14 16 16 21 23 21 18 18 16 14 13 12 11 11 12 14 14 17 19 20 22 20 16 15 16 17 16 22 28 31 33 35 38 41 42 42 40 41 41 41 52 61 62 63 65 72 75 73 72 69 68 70 74 76 76 76 77 77 77 77 76 72 71 70 68 66
10 10 10 10 10 10 10 9 9 10 12 13 12 11 11 11 11 12 12 12 15 18 20 21 22 23 23 22 21 19 16 14 14 12 12 12 12 13 14 18 20 22 23 21 17 16 18 20 21 27 32 33 33 33 38 41 39 41 40 39 39 38 43 51 57 59 58 63 67 71 70 66 66 68 71 74 75 75 76 77 77 77 77 75 72 70 69 67
13 12 12 10 10 10 10 10 9 10 13 12 12 11 10 10 11 12 12 14 18 21 25 24 23 25 25 24 23 19 15 14 14 13 13 14 13 15 18 21 22 23 24 21 17 17 20 27 31 32 34 33 32 31 34 37 35 37 38 36 38 36 36 40 45 48 49 53 58 61 61 57 60 65 65 67 69 72 73 73 75 77 77 76 73 70 69 69
14 14 14 13 12 11 11 11 9 10 12 13 12 11 11 11 12 15 15 17 20 21 24 23 21 24 26 26 25 19 15 15 15 13 13 14 15 18 22 26 26 23 23 20 17 18 24 33 34 29 31 33 32 29 30 34 32 32 34 35 35 35 36 36 35 38 44 47 50 50 50 49 52 58 61 62 64 67 70 70 72 74 76 76 73 70 69 69
14 15 16 15 14 13 12 12 10 10 12 13 12 12 14 16 17 20 20 20 22 21 22 22 21 24 25 26 24 20 18 17 16 15 14 14 17 19 21 27 29 25 23 20 17 22 28 32 31 29 33 32 31 30 29 31 31 30 31 33 33 32 35 36 32 36 43 45 47 47 46 47 46 48 53 57 60 63 66 68 70 72 74 76 75 74 71 69
14 15 16 16 16 15 14 13 11 10 12 13 13 14 17 19 20 22 23 23 24 21 21 21 22 25 23 22 22 20 20 19 16 16 15 15 17 18 19 27 31 27 24 21 20 27 32 30 30 34 34 31 30 30 30 30 31 31 31 31 32 31 32 35 33 34 41 44 47 46 44 45 43 43 47 51 55 57 61 66 70 72 73 75 75 74 72 70
15 15 16 16 17 18 17 17 14 12 13 14 14 16 20 23 23 23 24 25 24 21 19 20 23 25 22 20 21 21 21 20 18 16 15 15 17 18 20 27 31 28 25 23 23 29 34 32 32 34 33 32 31 30 29 30 29 30 30 29 31 30 29 33 32 33 41 44 44 42 41 42 41 43 45 47 49 53 57 63 67 69 69 71 72 72 72 71
15 15 16 17 17 19 19 19 17 14 14 14 15 18 22 24 24 24 23 23 24 21 17 20 24 25 23 22 22 22 21 20 17 16 15 15 16 18 21 25 28 28 25 25 25 28 32 32 31 33 34 33 32 32 30 29 29 29 29 29 29 27 27 30 29 30 37 40 39 40 43 43 41 41 45 45 47 51 55 58 61 63 63 67 70 70 71 71
15 16 17 18 18 18 19 20 20 18 16 16 16 19 23 24 22 20 22 23 25 22 18 20 24 23 23 24 22 20 20 18 17 17 16 16 17 18 21 24 26 28 27 24 25 27 29 29 28 31 33 32 32 33 30 29 29 29 28 27 26 25 24 25 25 25 30 33 33 38 48 52 47 44 46 47 49 51 53 55 57 60 61 62 65 66 68 71
16 18 18 18 19 19 19 21 22 21 18 18 18 20 23 24 20 17 21 25 23 20 18 17 18 18 19 21 19 17 17 17 17 18 18 17 18 19 21 24 25 27 27 25 25 25 25 26 26 29 31 31 32 32 30 28 28 29 28 24 24 24 23 22 22 23 26 29 30 34 43 50 49 47 48 50 54 54 52 54 56 59 62 61 62 63 66 69
18 19 19 19 21 21 21 23 24 23 22 20 19 20 23 23 19 16 22 28 24 19 17 15 14 15 17 17 15 15 17 18 19 21 20 18 18 19 22 23 22 24 24 25 27 25 23 23 25 27 29 31 31 30 29 27 28 29 25 22 22 23 22 22 22 22 24 26 31 35 38 45 49 47 47 50 56 57 54 55 56 59 61 61 61 63 66 69
19 19 20 21 22 22 23 24 26 27 25 22 19 20 22 22 19 20 27 33 30 22 17 15 16 17 17 15 13 14 16 18 22 23 20 19 20 21 24 24 23 24 23 26 30 25 21 23 25 26 28 29 28 27 26 25 26 28 23 21 21 20 21 24 21 21 24 24 29 35 37 47 53 47 46 49 53 57 55 54 56 58 61 61 62 63 66 68
19 20 22 23 24 25 25 26 28 29 27 24 21 21 22 21 20 25 32 34 29 24 20 19 19 19 19 16 12 14 17 20 24 23 19 19 20 21 25 24 23 23 20 23 28 24 21 23 24 24 26 27 25 25 25 24 27 27 24 22 21 21 23 25 22 22 25 26 30 33 33 43 52 48 48 50 49 53 55 55 56 56 59 61 61 62 64 67
19 22 23 24 25 26 27 28 29 29 28 25 22 22 21 21 27 35 35 32 29 26 25 23 22 21 19 16 15 16 19 22 24 21 19 21 20 20 24 24 21 21 19 20 23 22 21 21 22 22 22 23 23 23 23 23 26 27 27 24 22 23 24 27 31 27 29 34 33 31 29 35 45 48 50 50 48 50 53 53 54 55 57 60 61 61 62 63
22 25 25 26 26 27 28 30 30 30 28 26 23 22 22 25 37 44 37 30 30 30 28 26 24 22 20 18 18 19 21 24 24 21 21 23 21 20 23 25 23 22 22 23 23 22 22 21 23 22 20 21 22 22 20 21 23 24 26 25 24 27 26 27 32 28 29 34 30 27 28 31 40 46 48 48 46 47 49 48 49 50 54 57 61 62 61 61
25 27 27 27 28 28 29 31 30 29 28 27 25 24 26 30 36 39 35 31 32 33 31 29 26 25 23 21 20 20 21 23 23 23 23 23 22 21 22 25 26 24 23 25 25 25 25 25 26 24 22 21 21 23 21 19 21 23 25 26 27 30 27 26 31 29 28 30 24 23 27 33 39 41 44 44 39 39 42 41 42 47 50 53 56 59 60 59
27 30 30 29 30 30 31 32 32 30 29 28 27 27 31 35 35 34 33 33 34 34 33 31 29 27 26 25 23 22 23 23 23 24 23 23 23 22 21 22 24 25 25 25 27 27 27 27 26 26 25 22 22 24 22 20 22 23 25 26 28 31 29 30 35 32 27 26 22 21 27 34 34 32 36 40 34 32 34 35 36 40 45 49 53 57 58 58
31 33 32 31 32 32 32 34 34 33 31 29 28 29 31 34 35 34 33 34 36 36 34 33 31 29 29 28 27 25 25 25 25 24 24 24 26 26 24 21 22 25 27 28 29 29 31 29 26 25 24 21 22 23 22 21 22 23 25 25 27 31 30 31 34 30 26 26 24 22 27 30 26 24 30 36 37 37 34 33 34 34 37 43 49 54 58 59
34 33 33 32 32 32 32 33 33 31 29 29 30 33 34 35 35 33 32 35 39 38 36 36 33 32 32 31 29 27 26 27 26 26 26 26 28 29 27 24 23 26 27 28 29 30 33 31 26 25 24 22 23 23 22 22 22 24 26 24 25 28 28 28 30 30 27 26 27 26 26 26 21 20 26 33 39 40 35 33 33 33 36 40 44 48 53 57
34 33 33 32 32 32 34 34 32 30 28 31 35 36 35 34 34 33 33 37 41 40 40 40 37 35 35 34 32 30 28 28 28 29 28 28 29 30 30 27 25 26 27 27 29 30 32 31 27 26 25 23 23 23 23 23 25 26 25 25 25 24 27 27 26 30 29 27 29 30 28 27 23 19 23 29 35 39 39 36 33 34 38 40 42 46 51 53
33 34 33 33 32 33 35 36 34 32 30 33 40 41 38 35 34 34 37 40 41 41 43 43 41 39 38 37 35 34 31 30 30 31 31 30 30 30 31 30 27 27 27 26 27 28 30 30 29 28 26 25 23 24 24 22 24 27 25 26 24 21 26 27 26 32 31 28 30 34 37 37 31 27 26 26 29 34 38 38 35 36 39 41 42 45 49 50
31 34 33 32 33 34 36 37 36 36 36 39 45 44 40 40 38 35 37 39 41 42 44 44 43 41 40 40 39 38 35 33 33 33 33 33 32 31 31 31 30 29 28 27 26 28 28 28 29 28 26 25 24 24 26 25 25 26 26 26 24 24 26 25 27 29 29 32 33 35 44 46 39 36 34 31 33 35 35 36 36 38 41 41 41 41 43 44
28 31 33 33 33 34 35 35 36 38 41 46 51 46 40 41 42 39 37 38 40 42 44 44 43 42 41 41 41 41 39 37 37 36 35 34 33 32 31 31 30 29 28 28 28 30 29 27 29 28 25 25 25 26 29 29 27 26 27 26 25 28 27 24 27 27 28 37 35 34 45 46 40 42 43 41 42 40 37 35 36 39 41 41 40 39 37 37
27 27 30 32 33 34 33 32 33 36 42 47 51 50 46 44 43 42 39 38 40 42 43 43 45 44 43 41 40 41 41 41 41 39 38 37 35 33 32 31 31 30 28 28 29 31 32 30 30 29 27 26 28 30 30 31 30 28 29 29 27 28 28 26 28 26 28 37 39 43 50 45 42 46 46 46 44 40 39 37 35 38 41 41 40 37 33 30
28 28 28 30 33 34 32 31 31 33 38 41 42 46 49 47 44 43 41 39 40 42 42 43 45 44 43 42 40 38 39 40 41 41 40 39 37 36 34 32 32 31 30 30 30 31 34 33 31 32 31 31 31 32 31 31 31 29 30 31 30 30 31 32 32 28 30 34 37 47 50 45 47 48 45 47 44 38 38 37 35 36 37 39 40 37 31 27
29 31 28 28 31 33 33 33 33 33 33 33 32 35 39 40 40 41 41 40 41 43 44 45 46 45 44 41 40 39 40 41 41 41 41 39 38 37 34 33 32 30 32 33 31 32 34 35 34 35 37 36 32 31 32 33 32 30 31 32 32 31 32 36 35 32 33 33 34 42 45 46 53 54 51 51 46 41 39 37 36 36 35 36 37 36 33 29
26 30 28 27 28 30 33 36 35 33 32 30 29 28 29 32 33 35 35 36 39 42 45 46 46 47 45 42 42 42 41 41 43 42 42 41 38 35 34 33 31 30 32 33 33 32 33 35 35 37 42 43 37 34 35 35 34 34 35 35 34 33 33 36 36 35 37 34 33 40 42 44 52 58 58 55 49 46 43 38 37 36 35 36 36 36 36 32
25 26 27 27 27 27 32 37 37 35 35 33 31 29 27 26 28 29 30 31 33 37 42 45 46 45 45 43 42 42 40 40 42 41 41 41 37 32 31 31 30 30 30 31 32 29 28 34 35 37 44 44 40 40 38 35 35 37 37 36 36 36 35 36 37 40 41 35 34 41 41 40 47 55 58 56 50 48 45 42 41 38 37 37 35 36 36 34
26 27 26 26 27 29 32 35 35 36 37 35 34 33 31 28 26 26 27 28 28 30 33 36 38 40 41 40 38 36 37 38 40 39 39 37 34 29 28 28 28 29 27 27 29 26 27 32 33 37 43 40 39 42 41 38 38 36 35 35 36 37 37 37 39 41 42 37 36 40 39 36 42 53 59 56 50 50 50 48 47 45 43 42 40 39 37 35
27 29 29 28 26 28 31 32 32 35 38 40 38 37 36 34 30 28 27 26 25 26 27 28 30 32 34 35 34 33 34 35 36 36 35 32 30 28 25 24 24 24 24 23 24 25 30 31 30 35 39 36 37 39 38 38 38 35 35 35 35 37 37 38 40 41 38 35 37 41 38 32 38 52 60 57 52 51 53 53 51 50 51 51 50 48 44 39
25 29 31 29 25 25 28 28 30 34 37 39 40 38 38 38 35 33 31 28 27 26 26 27 29 31 30 30 31 30 31 33 33 32 31 29 29 27 22 21 20 19 18 17 17 23 29 28 29 32 32 32 35 35 34 35 35 33 35 34 34 36 36 36 37 37 35 34 37 44 42 33 36 49 56 57 55 50 51 56 57 55 54 54 55 57 54 47
23 26 27 27 25 27 28 26 27 31 32 34 36 36 37 39 38 37 35 33 32 30 29 29 30 31 29 30 31 30 32 34 31 30 29 27 29 28 23 22 21 18 17 17 16 22 26 26 28 30 29 30 32 32 33 34 34 34 35 34 33 35 35 34 34 35 35 34 34 39 39 33 38 46 48 51 55 50 47 53 58 58 58 56 56 61 61 56
21 24 24 24 24 25 27 26 27 28 30 34 35 31 31 33 34 36 37 37 36 35 34 33 31 31 32 35 36 34 34 34 31 29 29 27 29 30 27 26 25 21 20 21 20 23 25 27 27 26 28 30 29 30 31 31 33 36 36 35 34 33 33 32 33 33 32 32 32 34 34 36 40 44 42 45 52 50 46 50 55 59 61 60 60 63 64 61
21 22 21 22 24 24 24 26 28 30 32 35 35 31 30 31 29 29 32 35 36 36 36 35 34 33 35 38 37 33 32 33 32 30 31 31 33 33 30 29 28 25 25 24 23 24 25 29 30 28 27 28 28 29 29 29 32 35 36 37 35 33 33 32 31 32 31 31 33 32 33 38 42 43 42 42 46 48 48 49 53 57 61 63 64 66 66 63
21 21 20 23 27 26 24 26 29 32 34 35 35 34 34 35 32 29 29 29 31 32 33 34 35 34 35 36 33 30 29 31 31 30 30 31 32 31 30 30 28 28 29 27 25 26 27 29 31 30 28 27 27 27 28 28 29 30 33 36 35 33 33 32 34 39 40 40 41 36 36 44 45 43 43 43 44 47 48 48 50 54 57 61 64 66 66 65
22 21 20 23 26 26 26 28 30 31 31 31 34 35 36 37 36 33 32 31 31 30 29 30 31 31 32 33 30 27 26 27 28 28 27 28 29 28 28 29 28 29 30 29 27 29 31 30 29 29 29 29 28 28 27 25 23 26 31 34 35 35 34 37 44 48 48 49 49 45 43 47 46 44 45 45 45 47 48 47 51 56 58 59 61 63 63 64